Regional Weather Roundup
Issued by NWS Lake Charles, LA

Home | Current Version | Previous Version | Text Only | Print | Product List | Glossary On
Versions: 1 2 3 4 5 6 7 8 9 10 11 12 13 14 15 16 17 18 19 20 21 22 23 24 25 26 27
000
ASUS44 KLCH 231310
RWRLCH
REGIONAL WEATHER ROUNDUP
NATIONAL WEATHER SERVICE LAKE CHARLES LA
800 AM CDT MON OCT 23 2017

Note: "fair" indicates few or no clouds below 12,000 feet with no
significant weather and/or obstructions to visibility.


ACROSS SOUTHEAST TEXAS

CITY           SKY/WX    TMP DP  RH WIND       PRES   REMARKS
BEAUMONT       CLEAR     55  51  86 N10       30.11S
BEAUMONT CITY  FAIR      51  49  92 CALM      30.13S
ORANGE         SUNNY     52  52 100 CALM      30.13F
JASPER         FOG       47  47 100 CALM      30.15S VSB 1/4
$$

ACROSS CENTRAL LOUISIANA

CITY           SKY/WX    TMP DP  RH WIND       PRES   REMARKS
LEESVILLE      CLEAR     50  49  97 CALM      30.11S
FULLERTON      FAIR      49  48  97 CALM      30.10R
ALEXANDRIA INT CLEAR     49  49 100 W3        30.10R
ESLER FIELD    CLEAR     49  49 100 NW3       30.11R
DERIDDER       FAIR      50  49  95 CALM      30.14R
OAKDALE        SUNNY     51  49  92 N6        30.11S
OPELOUSAS        N/A     53  52  98 CALM      30.10R
$$

ACROSS SOUTHWEST AND SOUTH CENTRAL LOUISIANA

CITY           SKY/WX    TMP DP  RH WIND       PRES   REMARKS
SULPHUR        SUNNY     53  52  97 NW5       30.12F
LAKE CHARLES   CLEAR     54  52  93 NW5       30.11S
CHENNAULT INT  CLEAR     52  52 100 NW6       30.12S
CAMERON PHI    SUNNY     59  54  82 N8        30.10S
DEQUINCY       FAIR      48  47  97 CALM      30.12S
JENNINGS       FAIR      53  51  94 NW3       30.11R
LAFAYETTE      CLEAR     57  55  93 NW7       30.09S
NEW IBERIA     CLEAR     56  54  93 NW5       30.10R
ABBEVILLE      FAIR      54  54 100 NW3       30.11R
PATTERSON      MOCLDY    59  58  96 N6        30.09R
SALT POINT       N/A     59  57  93 N7        30.07R
$$

SELECTED SITES ACROSS THE REGION

CITY           SKY/WX    TMP DP  RH WIND       PRES   REMARKS
HOUSTON BUSH   CLEAR     52  51  97 CALM      30.14S
HOUSTON HOBBY  CLEAR     55  51  86 CALM      30.14S
GALVESTON      CLEAR     62  55  77 NE7       30.14S
COLLEGE STAT   CLEAR     50  47  89 CALM      30.14F
CONROE         CLEAR     45  45 100 NW5       30.14R
HUNTSVILLE     CLEAR     48  45  89 CALM      30.14S
LUFKIN         CLEAR     46  46 100 CALM      30.13S
SHREVEPORT     CLEAR     49  47  93 SW3       30.11R
MONROE         CLEAR     49  48  97 SW3       30.10R
NATCHEZ MS     CLEAR     55  53  93 NW7       30.09S
BATON ROUGE    MOCLDY    58  56  93 VRB5      30.08R
N.O. INTL ARPT MOCLDY    62  62 100 W6        30.05S
SLIDELL        MOSUNNY   58  56  93 N5        30.04S
$$

MARINE REPORTS

STATION/POSITION TIME  SKY/WX   TEMP    WIND        PRES    VSBY
                                AIR SEA DIR/SP/G
                 (UTC)          (F)     (DEG/KT/KT) (MB)    (MI)
BUOY 30 S HIGH I 1150            67 78   10/ 16/ 17 1019.8
WVE H/P(F/S)=  3/ 4

SEA RIM ST PARK  1300            57     330/  4/  4 1020.5S
PORT ARTHUR      1248            58 74   10/  8/ 11 1019.8F
SABINE PASS N    1248            61 75   10/  6/  8 1021.1F
TEXAS POINT      NOT AVBL
CALCASIEU PASS   1248            60 72   10/  9/ 11 1018.5R
LK CHARLES BEACH 1248            55 76              1019.2F
MARSH ISLAND     NOT AVBL
FRESH WATER LOCK 1248            57 72  310/  7/  9 1019.1R
AMERADA PASS     1248            61 71  310/  6/ 10 1018.3R
$$




USA.gov is the U.S. government's official web portal to all federal, state and local government web resources and services.